This is the latest recevied weather packets stored in our database for station/object AA7VG. If no packets are shown the sender has not sent any weather packets the latest 10 day(s).
| Time | Temp. | Humidity | Pressure | Rain* | Wind** | Luminosity | Snow |
|---|---|---|---|---|---|---|---|
| 1778055491 | -1.67° C | 75% | 1018.4 hPa | 0 mm | - | - | - |
| 1778055189 | -2.22° C | 76% | 1018.4 hPa | 0 mm | - | - | - |
| 1778054886 | -1.67° C | 75% | 1018.4 hPa | 0 mm | - | - | - |
| 1778054582 | -1.67° C | 75% | 1018.5 hPa | 0 mm | - | - | - |
| 1778054280 | -1.67° C | 74% | 1018.4 hPa | 0 mm | - | - | - |
| 1778053977 | -1.11° C | 73% | 1018.3 hPa | 0 mm | - | - | - |
| 1778053674 | -1.11° C | 72% | 1018.6 hPa | 0 mm | - | - | - |
| 1778053371 | -1.11° C | 72% | 1018.5 hPa | 0 mm | - | - | - |
| 1778053069 | -1.11° C | 73% | 1018.4 hPa | 0 mm | - | - | - |
| 1778052766 | -0.56° C | 72% | 1018.4 hPa | 0 mm | - | - | - |
| 1778052463 | -0.56° C | 72% | 1018.4 hPa | 0 mm | - | - | - |
| 1778052161 | 0° C | 72% | 1018.4 hPa | 0 mm | - | - | - |
| 1778051858 | 0° C | 69% | 1018.4 hPa | 0 mm | - | - | - |
| 1778051556 | 0° C | 68% | 1018.5 hPa | 0 mm | - | - | - |
| 1778051253 | 0° C | 68% | 1018.4 hPa | 0 mm | - | - | - |
| 1778050950 | 0° C | 68% | 1018.4 hPa | 0 mm | - | - | - |
| 1778050647 | 0° C | 67% | 1018.4 hPa | 0 mm | - | - | - |
| 1778050344 | 0.56° C | 66% | 1018.4 hPa | 0 mm | - | - | - |
| 1778050041 | 0.56° C | 67% | 1018.4 hPa | 0 mm | - | - | - |
| 1778049736 | 0.56° C | 67% | 1018.6 hPa | 0 mm | - | - | - |
| 1778049435 | 1.11° C | 64% | 1018.4 hPa | 0 mm | - | - | - |
| 1778049131 | 1.67° C | 60% | 1018.6 hPa | 0 mm | - | - | - |
| 1778048830 | 1.67° C | 59% | 1018.4 hPa | 0 mm | - | - | - |
| 1778048527 | 1.67° C | 58% | 1018.3 hPa | 0 mm | - | - | - |
| 1778048223 | 1.67° C | 59% | 1018.4 hPa | 0 mm | - | - | - |
* Rain latest hour (hover to see other rain measurements)
** Current wind speed in m/s (hover to see current wind gust speed)